Weather History for KBTM - September, 2011

Change the Weather History Date:

Tuesday, September 6, 2011

  Actual Average Record
Temperature  
Mean Temperature 58 °F 56 °F  
Max Temperature 80 °F 73 °F 88 °F (1980)
Min Temperature 35 °F 39 °F 26 °F (1948)
Degree Days  
Heating Degree Days 7 9  
Month to date heating degree days 67 51  
Since 1 July heating degree days 228 279  
Cooling Degree Days 0 0  
Month to date cooling degree days 0 0  
Year to date cooling degree days 46 79  
Growing Degree Days 8 (Base 50)    
Moisture  
Dew Point 22 °F    
Average Humidity 36    
Maximum Humidity 64    
Minimum Humidity 7    
Precipitation  
Precipitation 0.00 in 0.04 in 0.56 in (1894)
Month to date precipitation 0.00 0.24  
Year to date precipitation 10.17 10.12  
Snow  
Snow 0.00 in - - ()
Snow Depth -    
Sea Level Pressure  
Sea Level Pressure 30.17 in    
Wind  
Wind Speed 4 mph (ESE)    
Max Wind Speed 14 mph    
Max Gust Speed 20 mph    
Visibility 10 miles    
Events      
T = Trace of Precipitation, MM = Missing Value Source: NWS Daily Summary

Daily Weather History Graph

Daily Weather History Graph

Search for Another Location

Airport or City:

Trip Planner

Search our weather history database for the weather conditions in past years. The results will help you decide how hot, cold, wet, or windy it might be!

Date:

Astronomy

Sep. 06, 2011 Rise Set
Actual Time 6:56 AM MDT 7:59 PM MDT
Civil Twilight 6:26 AM MDT 8:29 PM MDT
Nautical Twilight 5:49 AM MDT 9:06 PM MDT
Astronomical Twilight 5:10 AM MDT 9:44 PM MDT
Moon 4:51 PM MDT (9/6) 1:00 AM MDT (9/6)
Length of Visible Light 14h 03m
Length of Day
13h 02m
Waxing Gibbous, 71% of the Moon is Illuminated
Sep 6
Waxing Gibbous
Sep 12
Full
Sep 20
Last Quarter
Sep 27
New
Oct 3
First Quarter

Hourly Weather History & Observations

Time (MDT) Temp. Windchill Dew Point Humidity Pressure Visibility Wind Dir Wind Speed Gust Speed Precip Events Conditions
12:53 AM 48.0 °F - 27.0 °F 44% 30.05 in 10.0 mi SSE 4.6 mph - N/A   Clear
1:53 AM 48.0 °F - 28.0 °F 46% 30.06 in 10.0 mi Calm Calm - N/A   Clear
2:53 AM 44.1 °F - 27.0 °F 51% 30.07 in 10.0 mi Calm Calm - N/A   Clear
3:53 AM 43.0 °F 40.3 °F 28.0 °F 56% 30.09 in 10.0 mi SE 4.6 mph - N/A   Clear
4:53 AM 39.9 °F 36.7 °F 26.1 °F 58% 30.11 in 10.0 mi SSE 4.6 mph - N/A   Clear
5:53 AM 39.9 °F - 25.0 °F 55% 30.13 in 10.0 mi Calm Calm - N/A   Clear
6:53 AM 35.1 °F 30.1 °F 25.0 °F 67% 30.18 in 10.0 mi SSE 5.8 mph - N/A   Clear
7:53 AM 37.0 °F - 26.1 °F 65% 30.20 in 10.0 mi Calm Calm - N/A   Clear
8:53 AM 45.0 °F - 28.0 °F 52% 30.20 in 10.0 mi Calm Calm - N/A   Clear
9:53 AM 55.9 °F - 27.0 °F 33% 30.20 in 10.0 mi Calm Calm - N/A   Clear
10:53 AM 64.9 °F - 28.9 °F 26% 30.19 in 8.0 mi Calm Calm - N/A   Clear
11:53 AM 72.0 °F - 27.0 °F 19% 30.17 in 10.0 mi NW 4.6 mph - N/A   Clear
12:53 PM 75.0 °F - 23.0 °F 14% 30.16 in 10.0 mi NW 8.1 mph - N/A   Clear
1:53 PM 77.0 °F - 17.1 °F 10% 30.15 in 10.0 mi North 6.9 mph - N/A   Clear
2:53 PM 79.0 °F - 12.9 °F 8% 30.15 in 10.0 mi NNE 11.5 mph 17.3 mph N/A   Clear
3:00 PM - - - N/A% - - North - - N/A   Unknown
3:53 PM 80.1 °F - 12.0 °F 8% 30.14 in 10.0 mi Variable 5.8 mph - N/A   Clear
4:53 PM 78.1 °F - 10.9 °F 8% 30.16 in 10.0 mi Variable 5.8 mph - N/A   Clear
5:53 PM 79.0 °F - 12.9 °F 8% 30.16 in 10.0 mi Variable 4.6 mph - N/A   Clear
6:53 PM 77.0 °F - 14.0 °F 9% 30.19 in 10.0 mi North 5.8 mph - N/A   Clear
7:53 PM 70.0 °F - 19.9 °F 15% 30.21 in 10.0 mi WNW 4.6 mph - N/A   Clear
8:53 PM 61.0 °F - 21.9 °F 22% 30.25 in 10.0 mi SE 4.6 mph - N/A   Clear
9:53 PM 57.0 °F - 19.9 °F 24% 30.25 in 10.0 mi SE 10.4 mph - N/A   Clear
10:53 PM 52.0 °F - 19.9 °F 28% 30.25 in 10.0 mi SE 3.5 mph - N/A   Clear
11:53 PM 48.9 °F - 21.0 °F 33% 30.25 in 10.0 mi Calm Calm - N/A   Clear